Location: Ferchesar
(52.6477°N, 12.4298°E)
Time: 01:07:07
(UTC+01:00)

deb Explorer IX - Pass Details

Date: 11 December 2021
Orbit: 544 x 1082 km, 38.8° (Epoch: 19 January)

Event Time Altitude Azimuth Distance (km) Brightness Sun altitude
Rises 08:11:00 0° 225° (SW) 3,449 ? -0.9°
Reaches altitude 10° 08:14:44 10° 204° (SSW) 2,387 ? -0.5°
Maximum altitude 08:17:51 15° 170° (S) 1,939 ? -0.1°
Drops below altitude 10° 08:20:45 10° 135° (SE) 2,180 ? 0.2°
Sets 08:23:54 0° 112° (ESE) 2,990 ? 0.6°
